[[{"header":{"parameterUnit":"m.s-1","parameterCategory":1,"la1":30.2992,"la2":30.254,"lo1":-89.0895,"lo2":-89.0443,"dy":0.0025,"dx":0.0025,"nx":19,"ny":19,"refTime":"2026-05-12T03:00:00:Z","depth":0,"parameterNumber":2,"parameterNumberName":"U-component_of_WINDS"},"data":[0,0,0,-6.2338,-6.2341,-6.2448,-6.2448,-6.2612,-6.2614,0,0,0,0,0,0,0,0,0,0,0,-6.2325,-6.2327,-6.2338,-6.2341,-6.2448,-6.2448,-6.2612,-6.2614,0,0,0,0,0,0,0,0,0,0,0,-6.2324,-6.2327,-6.2329,-6.2341,-6.2448,-6.2448,-6.2611,-6.252,0,0,0,0,0,0,0,0,0,0,-6.2412,-6.2419,-6.2326,-6.2329,-6.2342,-6.2448,-6.2448,-6.2516,-6.2526,-6.2576,0,-6.2628,0,-6.2624,-6.2627,-6.2628,0,0,0,-6.2326,-6.2411,-6.2422,-6.2329,-6.2343,-6.2447,-6.2395,-6.2521,-6.2533,-6.259,-6.263,-6.2635,-6.2627,-6.2628,-6.2629,-6.2971,-6.2973,0,0,-6.232,-6.2354,-6.2414,-6.2431,-6.2419,-6.2392,-6.2399,-6.2528,-6.2572,-6.263,-6.2638,-6.2629,-6.2629,-6.2631,-6.2969,-6.2972,0,0,0,-6.2313,-6.2351,-6.2359,-6.2425,-6.2443,-6.2395,-6.2403,-6.2567,-6.2566,-6.264,-6.2631,-6.2631,-6.2633,-6.2966,-6.297,-6.3117,0,0,0,-6.2309,-6.2347,-6.2357,-6.2379,-6.2441,-6.2507,-6.244,-6.2558,-6.2571,-6.263,-6.2631,-6.2635,-6.2964,-6.2968,-6.3107,-6.3181,0,0,0,-6.2312,-6.2347,-6.2369,-6.2381,-6.2428,-6.2504,-6.251,-6.256,-6.2567,-6.2628,-6.2635,-6.2962,-6.2967,-6.3099,-6.3167,-6.3281,0,0,0,-6.2324,-6.2498,-6.2372,-6.2562,-6.2427,-6.2594,-6.2509,-6.2631,-6.2701,-6.2632,-6.2964,-6.297,-6.3096,-6.3158,-6.3273,-6.3385,-6.3434,0,0,-6.2562,-6.2528,-6.2637,-6.2527,-6.2726,-6.2575,-6.2794,-6.2825,-6.2798,-6.2914,-6.2922,-6.3111,-6.3166,-6.3279,-6.3699,-6.3739,0,0,0,-6.2724,-6.2803,-6.2848,-6.2917,-6.2945,-6.2975,-6.2969,-6.298,-6.3077,-6.2866,-6.3181,-6.3213,-6.3278,-6.333,-6.3364,-6.3417,-6.2995,-6.2994,-6.2994,-6.3111,-6.3069,-6.3246,-6.3216,-6.3283,-6.3275,-6.3325,-6.3337,-6.3274,-6.3349,-6.3384,-6.3645,-6.3707,-6.3732,-6.3788,-6.3439,-6.3439,-6.344,-6.344,-6.3457,-6.3562,-6.3473,-6.3613,-6.3566,-6.3682,-6.368,-6.3631,-6.3731,-6.3615,-6.367,-6.3548,-6.3777,-6.3824,-6.3451,-6.3449,-6.3448,-6.3447,-6.3446,-6.3707,-6.375,-6.376,-6.3854,-6.3931,-6.3893,-6.3994,-6.3946,-6.3902,-6.3957,-6.3988,-6.3985,-6.3977,-6.3975,-6.3976,-6.3976,-6.3977,-6.3978,-6.3978,-6.3963,-6.397,-6.4061,-6.4105,-6.4142,-6.4184,-6.4175,-6.421,-6.4236,-6.4193,-6.4193,-6.4123,-6.3807,-6.3729,-6.3992,-6.399,-6.3988,-6.3987,-6.3986,-6.4332,-6.424,-6.4382,-6.4419,-6.4465,-6.4543,-6.4481,-6.4555,-6.4576,-6.4627,-6.4543,-6.4318,-6.4279,-6.4251,-6.4187,-6.4552,-6.4552,-6.4552,-6.4552,-6.4543,-6.4518,-6.4652,-6.4714,-6.4769,-6.4726,-6.4885,-6.4879,-6.4858,-6.4868,-6.4808,-6.4717,-6.4692,-6.4668,-6.4632,-6.4571,-6.5025,-6.5026,-6.5026,-6.4767,-6.4745,-6.4891,-6.487,-6.4902,-6.4929,-6.5077,-6.515,-6.5107,-6.5044,-6.4875,-6.4855,-6.4708,-6.4663,-6.4599,-6.4543,-6.443,0,0]},{"header":{"parameterUnit":"m.s-1","parameterCategory":1,"la1":30.2992,"la2":30.254,"lo1":-89.0895,"lo2":-89.0443,"dy":0.0025,"dx":0.0025,"nx":19,"ny":19,"refTime":"2026-05-12T03:00:00:Z","depth":0,"parameterNumber":3,"parameterNumberName":"V-component_of_WINDS"},"data":[0,0,0,-5.3486,-5.3491,-5.3699,-5.37,-5.3964,-5.3966,0,0,0,0,0,0,0,0,0,0,0,-5.3426,-5.3428,-5.3486,-5.3491,-5.3699,-5.37,-5.3963,-5.3966,0,0,0,0,0,0,0,0,0,0,0,-5.3425,-5.3428,-5.343,-5.3492,-5.3699,-5.37,-5.3963,-5.3806,0,0,0,0,0,0,0,0,0,0,-5.3604,-5.3551,-5.3427,-5.343,-5.3493,-5.3699,-5.37,-5.3798,-5.3816,-5.3869,0,-5.392,0,-5.3948,-5.3984,-5.3985,0,0,0,-5.3489,-5.3537,-5.3591,-5.3431,-5.3495,-5.3699,-5.3605,-5.3808,-5.3828,-5.3892,-5.3924,-5.3934,-5.3952,-5.3986,-5.3987,-5.4309,-5.431,0,0,-5.3478,-5.3464,-5.3578,-5.3604,-5.3576,-5.3598,-5.3611,-5.382,-5.3853,-5.3925,-5.394,-5.3956,-5.3987,-5.3989,-5.4307,-5.4309,0,0,0,-5.3446,-5.3456,-5.3506,-5.3593,-5.3631,-5.3604,-5.3619,-5.3843,-5.3861,-5.3943,-5.3959,-5.3989,-5.3992,-5.4306,-5.4308,-5.4375,0,0,0,-5.3439,-5.3438,-5.3501,-5.3495,-5.3628,-5.3741,-5.3638,-5.3846,-5.387,-5.3958,-5.3989,-5.3995,-5.4304,-5.4307,-5.4369,-5.4408,0,0,0,-5.3412,-5.3435,-5.3466,-5.3494,-5.3583,-5.3738,-5.3767,-5.3852,-5.3881,-5.3985,-5.3995,-5.4303,-5.4306,-5.4364,-5.44,-5.4488,0,0,0,-5.3379,-5.3522,-5.3467,-5.3632,-5.3581,-5.3778,-5.3766,-5.3913,-5.401,-5.399,-5.4304,-5.4308,-5.4363,-5.4395,-5.4483,-5.456,-5.4592,0,0,-5.3552,-5.3542,-5.364,-5.3597,-5.38,-5.3747,-5.3959,-5.4061,-5.4081,-5.4231,-5.4239,-5.4371,-5.44,-5.4487,-5.4771,-5.4796,0,0,0,-5.369,-5.3761,-5.3817,-5.3911,-5.3992,-5.4064,-5.4134,-5.4171,-5.4299,-5.4157,-5.4427,-5.4445,-5.4496,-5.4534,-5.4555,-5.46,-5.4325,-5.4324,-5.4324,-5.3915,-5.3935,-5.4098,-5.4143,-5.4233,-5.4303,-5.4377,-5.4438,-5.4432,-5.4495,-5.4539,-5.471,-5.4753,-5.4769,-5.4815,-5.4582,-5.4582,-5.4582,-5.4583,-5.4169,-5.4272,-5.4259,-5.4413,-5.4431,-5.4559,-5.4631,-5.4621,-5.4741,-5.4678,-5.4725,-5.4654,-5.4796,-5.4837,-5.4588,-5.4587,-5.4586,-5.4586,-5.4585,-5.4319,-5.4371,-5.4415,-5.455,-5.4651,-5.4689,-5.4805,-5.4818,-5.483,-5.4876,-5.4924,-5.4923,-5.4922,-5.4898,-5.4899,-5.4899,-5.49,-5.49,-5.4901,-5.4457,-5.4504,-5.4601,-5.4698,-5.4758,-5.4839,-5.4909,-5.4967,-5.5035,-5.5035,-5.5035,-5.502,-5.4806,-5.4752,-5.491,-5.4908,-5.4907,-5.4906,-5.4906,-5.4707,-5.4652,-5.4803,-5.4863,-5.4977,-5.5075,-5.5089,-5.5207,-5.5256,-5.5312,-5.5288,-5.5127,-5.5118,-5.5101,-5.5056,-5.5284,-5.5284,-5.5284,-5.5284,-5.4833,-5.4829,-5.4985,-5.5081,-5.5175,-5.5203,-5.5368,-5.5422,-5.5469,-5.55,-5.5469,-5.541,-5.5393,-5.5394,-5.5371,-5.5329,-5.5621,-5.5621,-5.5621,-5.4987,-5.4993,-5.5134,-5.5181,-5.527,-5.5344,-5.55,-5.5607,-5.5648,-5.5635,-5.5525,-5.5511,-5.5416,-5.5384,-5.537,-5.5334,-5.5257,0,0]}]]